User: anonymous   Login
Location: Allie Creek
(37.5926°N, 89.8526°W)
Time: 03:53:03
(UTC+00:00)
Language:

Cosmos 1271 Rocket - Orbit

View from above orbital plane
View from above orbital plane
View from above satellite
View from above satellite

Ground track
Ground track

The orbit data is extracted from the following two-line orbital elements,

1 12465U 81046B   24060.53388901  .00006202  00000-0  26007-3 0  9994
2 12465  81.2365  83.7895 0029388  42.3121 318.0371 15.22933001325243
Epoch (UTC): 29 February 2024 12:48:48
Eccentricity: 0.0029388
inclination: 81.2365°
perigee height: 477 km
apogee height: 517 km
right ascension of ascending node: 83.7895°
argument of perigee: 42.3121°
revolutions per day: 15.22933001
mean anomaly at epoch: 318.0371°
orbit number at epoch: 32524

The dashed part of the orbit path shows where the satellite is in the earth's shadow,  

DLR